Weather History for KVER - June, 2013

Change the Weather History Date:

Wednesday, June 12, 2013

  Actual Average (KDMO) Record (KDMO)
Temperature  
Mean Temperature 85 °F 74 °F  
Max Temperature 93 °F 84 °F - ()
Min Temperature 77 °F 64 °F - ()
Degree Days  
Heating Degree Days 0 0  
Month to date heating degree days 4  
Since 1 June heating degree days 4  
Since 1 July heating degree days 4569  
Cooling Degree Days 20 9  
Month to date cooling degree days 96  
Year to date cooling degree days 235  
Since 1 June cooling degree days 96  
Growing Degree Days 35 (Base 50)    
Moisture  
Dew Point 68 °F    
Average Humidity 58    
Maximum Humidity 72    
Minimum Humidity 39    
Precipitation  
Precipitation 0.00 in 0.18 in - ()
Month to date precipitation 2.34  
Year to date precipitation 17.49  
Sea Level Pressure  
Sea Level Pressure 29.82 in    
Wind  
Wind Speed 8 mph (SW)    
Max Wind Speed 21 mph    
Max Gust Speed 31 mph    
Visibility 10 miles    
Events      
T = Trace of Precipitation, MM = Missing Value Source: NWS Daily Summary

Daily Weather History Graph

Daily Weather History Graph

Search for Another Location

Airport or City:

Trip Planner

Search our weather history database for the weather conditions in past years. The results will help you decide how hot, cold, wet, or windy it might be!

Date:

Astronomy

Jun. 12, 2013 Rise Set
Actual Time 5:44 AM CDT 8:36 PM CDT
Civil Twilight 5:12 AM CDT 9:08 PM CDT
Nautical Twilight 4:32 AM CDT 9:49 PM CDT
Astronomical Twilight 3:46 AM CDT 10:35 PM CDT
Moon 9:22 AM CDT (6/12) 11:14 PM CDT (6/12)
Length of Visible Light 15h 56m
Length of Day
14h 52m
Waxing Crescent, 14% of the Moon is Illuminated
Jun 12
Waxing Crescent
Jun 16
First Quarter
Jun 23
Full
Jun 29
Last Quarter
Jul 8
New

Hourly Weather History & Observations

Time (CDT) Temp. Heat Index Dew Point Humidity Pressure Visibility Wind Dir Wind Speed Gust Speed Precip Events Conditions
12:15 AM 79.0 °F - 63.5 °F 59% 29.87 in 10.0 mi SSW 6.9 mph - N/A   Clear
12:35 AM 79.9 °F - 63.9 °F 58% 29.87 in 10.0 mi SSW 5.8 mph - N/A   Clear
12:55 AM 79.7 °F - 64.4 °F 59% 29.87 in 10.0 mi South 4.6 mph - N/A   Clear
1:15 AM 79.5 °F - 64.4 °F 60% 29.86 in 10.0 mi SSW 8.1 mph - N/A   Clear
1:35 AM 80.1 °F 81.8 °F 64.8 °F 59% 29.86 in 10.0 mi SSW 6.9 mph - N/A   Clear
1:55 AM 80.1 °F 81.9 °F 65.1 °F 60% 29.86 in 10.0 mi SSW 8.1 mph - N/A   Clear
2:15 AM 79.9 °F - 65.3 °F 61% 29.85 in 10.0 mi SSW 5.8 mph - N/A   Clear
2:35 AM 79.9 °F - 65.5 °F 61% 29.86 in 10.0 mi SSW 5.8 mph - N/A   Clear
2:55 AM 79.9 °F - 65.8 °F 62% 29.86 in 10.0 mi SSW 5.8 mph - N/A   Clear
3:15 AM 79.5 °F - 66.2 °F 64% 29.85 in 10.0 mi SSW 4.6 mph - N/A   Clear
3:35 AM 78.8 °F - 66.6 °F 66% 29.85 in 10.0 mi SSW 5.8 mph - N/A   Clear
3:55 AM 78.3 °F - 66.7 °F 68% 29.85 in 10.0 mi SSW 8.1 mph - N/A   Clear
4:15 AM 78.1 °F - 67.1 °F 69% 29.85 in 10.0 mi SSW 6.9 mph - N/A   Clear
4:35 AM 78.1 °F - 67.3 °F 69% 29.85 in 10.0 mi SSW 8.1 mph - N/A   Clear
4:55 AM 77.9 °F - 67.3 °F 70% 29.85 in 10.0 mi SSW 8.1 mph - N/A   Clear
5:15 AM 78.1 °F - 67.3 °F 69% 29.85 in 10.0 mi SSW 8.1 mph - N/A   Clear
5:35 AM 78.1 °F - 67.3 °F 69% 29.86 in 10.0 mi SSW 11.5 mph - N/A   Clear
5:55 AM 78.1 °F - 67.3 °F 69% 29.86 in 10.0 mi SW 8.1 mph - N/A   Clear
6:15 AM 78.1 °F - 67.3 °F 69% 29.87 in 10.0 mi SSW 9.2 mph - N/A   Clear
6:35 AM 77.9 °F - 67.5 °F 70% 29.88 in 10.0 mi SSW 9.2 mph 16.1 mph N/A   Clear
6:55 AM 78.1 °F - 67.8 °F 71% 29.88 in 10.0 mi SSW 6.9 mph - N/A   Clear
7:15 AM 78.1 °F - 68.0 °F 71% 29.88 in 10.0 mi SSW 9.2 mph - N/A   Clear
7:35 AM 78.1 °F - 68.4 °F 72% 29.88 in 10.0 mi SSW 8.1 mph - N/A   Clear
7:55 AM 78.4 °F - 68.7 °F 72% 29.88 in 10.0 mi SSW 8.1 mph - N/A   Clear
8:15 AM 80.4 °F 83.4 °F 69.1 °F 68% 29.88 in 10.0 mi South 8.1 mph - N/A   Clear
8:35 AM 81.5 °F 84.8 °F 69.3 °F 66% 29.87 in 10.0 mi SSW 8.1 mph - N/A   Clear
8:55 AM 80.6 °F 83.5 °F 68.9 °F 67% 29.87 in 10.0 mi South 5.8 mph - N/A   Clear
9:15 AM 81.5 °F 84.8 °F 69.3 °F 66% 29.86 in 10.0 mi South 8.1 mph 16.1 mph N/A   Clear
9:35 AM 83.3 °F 87.1 °F 69.6 °F 63% 29.85 in 10.0 mi SSW 9.2 mph 16.1 mph N/A   Clear
9:55 AM 85.1 °F 89.1 °F 69.4 °F 59% 29.84 in 10.0 mi SSW 13.8 mph 23.0 mph N/A   Clear
10:15 AM 85.8 °F 90.1 °F 69.4 °F 58% 29.83 in 10.0 mi SSW 13.8 mph 20.7 mph N/A   Clear
10:35 AM 86.9 °F 91.3 °F 69.4 °F 56% 29.82 in 10.0 mi South 12.7 mph 18.4 mph N/A   Clear
10:55 AM 88.0 °F 92.5 °F 69.4 °F 54% 29.82 in 10.0 mi South 11.5 mph 19.6 mph N/A   Clear
11:15 AM 88.9 °F 93.0 °F 68.7 °F 51% 29.82 in 10.0 mi South 12.7 mph 20.7 mph N/A   Clear
11:35 AM 89.6 °F 93.4 °F 68.4 °F 49% 29.82 in 10.0 mi SSW 12.7 mph 23.0 mph N/A   Clear
11:55 AM 90.1 °F 94.0 °F 68.0 °F 48% 29.82 in 10.0 mi SSW 15.0 mph 21.9 mph N/A   Clear
12:15 PM 90.9 °F 94.8 °F 68.4 °F 47% 29.81 in 10.0 mi SSW 11.5 mph 21.9 mph N/A   Clear
12:35 PM 91.4 °F 95.8 °F 68.7 °F 47% 29.80 in 10.0 mi SSW 16.1 mph 21.9 mph N/A   Clear
12:55 PM 91.8 °F 96.5 °F 68.7 °F 47% 29.80 in 10.0 mi SSW 9.2 mph 19.6 mph N/A   Clear
1:15 PM 92.3 °F 96.5 °F 68.0 °F 45% 29.79 in 10.0 mi SW 11.5 mph 25.3 mph N/A   Clear
1:35 PM 92.5 °F 95.9 °F 67.1 °F 43% 29.78 in 10.0 mi SW 15.0 mph 27.6 mph N/A   Clear
1:55 PM 92.8 °F 95.6 °F 65.8 °F 41% 29.78 in 10.0 mi SSW 13.8 mph 23.0 mph N/A   Clear
2:15 PM 93.2 °F 95.8 °F 65.5 °F 40% 29.79 in 10.0 mi SSW 20.7 mph 28.8 mph N/A   Clear
2:35 PM 93.2 °F 95.3 °F 64.8 °F 39% 29.79 in 10.0 mi SW 18.4 mph 27.6 mph N/A   Clear
2:55 PM 93.2 °F 95.3 °F 65.1 °F 39% 29.78 in 10.0 mi SSW 10.4 mph 25.3 mph N/A   Scattered Clouds
3:15 PM 93.0 °F 95.9 °F 66.4 °F 41% 29.78 in 10.0 mi SW 15.0 mph 24.2 mph N/A   Mostly Cloudy
3:35 PM 92.7 °F 95.3 °F 65.7 °F 41% 29.78 in 10.0 mi SW 15.0 mph 25.3 mph N/A   Mostly Cloudy
3:55 PM 92.3 °F 95.1 °F 66.4 °F 42% 29.78 in 10.0 mi SW 12.7 mph 31.1 mph N/A   Mostly Cloudy
4:15 PM 92.1 °F 95.7 °F 67.3 °F 44% 29.78 in 10.0 mi SW 15.0 mph 20.7 mph N/A   Mostly Cloudy
4:35 PM 91.6 °F 95.2 °F 67.6 °F 45% 29.78 in 10.0 mi SW 10.4 mph 23.0 mph N/A   Overcast
4:55 PM 91.2 °F 95.5 °F 68.2 °F 47% 29.78 in 10.0 mi WSW 12.7 mph 21.9 mph N/A   Overcast
5:15 PM 91.8 °F 96.0 °F 68.5 °F 46% 29.77 in 10.0 mi SW 11.5 mph 19.6 mph N/A   Mostly Cloudy
5:35 PM 91.9 °F 96.9 °F 69.1 °F 47% 29.77 in 10.0 mi SW 12.7 mph 19.6 mph N/A   Mostly Cloudy
5:55 PM 91.8 °F 96.5 °F 68.9 °F 47% 29.77 in 10.0 mi WSW 9.2 mph 19.6 mph N/A   Scattered Clouds
6:15 PM 91.8 °F 96.5 °F 69.1 °F 47% 29.76 in 10.0 mi WSW 10.4 mph 19.6 mph N/A   Scattered Clouds
6:35 PM 91.0 °F 96.1 °F 69.6 °F 49% 29.76 in 10.0 mi SW 9.2 mph 16.1 mph N/A   Scattered Clouds
6:55 PM 90.9 °F 96.2 °F 69.8 °F 50% 29.76 in 10.0 mi SW 6.9 mph - N/A   Scattered Clouds
7:15 PM 90.3 °F 96.2 °F 70.3 °F 52% 29.76 in 10.0 mi WSW 5.8 mph - N/A   Clear
7:35 PM 89.6 °F 95.2 °F 70.5 °F 53% 29.76 in 10.0 mi SW 6.9 mph - N/A   Clear
7:55 PM 88.7 °F 94.3 °F 70.9 °F 55% 29.76 in 10.0 mi SW 4.6 mph - N/A   Clear
8:15 PM 87.6 °F 93.9 °F 71.6 °F 59% 29.76 in 10.0 mi SW 4.6 mph - N/A   Clear
8:35 PM 86.4 °F 92.6 °F 72.0 °F 62% 29.77 in 10.0 mi WSW 4.6 mph - N/A   Clear
8:55 PM 85.5 °F 91.5 °F 72.0 °F 64% 29.77 in 10.0 mi SW 4.6 mph - N/A   Clear
9:15 PM 84.7 °F 90.4 °F 72.0 °F 65% 29.78 in 10.0 mi SW 4.6 mph - N/A   Clear
9:35 PM 84.0 °F 89.6 °F 72.1 °F 67% 29.78 in 10.0 mi SW 5.8 mph - N/A   Clear
9:55 PM 83.3 °F 89.0 °F 72.5 °F 70% 29.79 in 10.0 mi WSW 5.8 mph - N/A   Clear
10:15 PM 82.9 °F 88.5 °F 72.5 °F 71% 29.80 in 10.0 mi WSW 5.8 mph - N/A   Clear
10:35 PM 82.4 °F 87.7 °F 72.5 °F 72% 29.80 in 10.0 mi West 5.8 mph - N/A   Mostly Cloudy
10:55 PM 83.1 °F 87.6 °F 70.5 °F 66% 29.82 in 10.0 mi NW 9.2 mph - N/A   Scattered Clouds
11:15 PM 82.4 °F 84.8 °F 66.7 °F 59% 29.83 in 10.0 mi NW 10.4 mph 21.9 mph N/A   Clear
11:35 PM 81.3 °F 83.0 °F 64.6 °F 57% 29.84 in 10.0 mi NW 9.2 mph 20.7 mph N/A   Clear
11:55 PM 80.4 °F 82.0 °F 63.9 °F 57% 29.85 in 10.0 mi NW 6.9 mph - N/A   Clear